Location: Domicella
(40.8833°N, 14.5833°E)
Time: 13:12:18
(UTC+00:00)

Cosmos 1937 Rocket - Pass Details

Date: 15 May 2026
Orbit: 743 x 774 km, 74.0° (Epoch: 11 June)

Event Time Altitude Azimuth Distance (km) Brightness Sun altitude
Rises 22:23:38 0° 341° (NNW) 3,197 7.9 -29.5°
Reaches altitude 10° 22:26:01 10° 342° (NNW) 2,266 6.8 -29.6°
Enters shadow 22:30:10 59° 353° (N) 858 3.9 -29.7°
